Regional Weather Roundup
Issued by NWS

Home | Current Version | Previous Version | Text Only | Print | Product List | Glossary Off
Versions: 1 2 3 4 5 6 7 8 9 10 11 12 13 14 15 16 17 18 19 20 21 22 23 24 25 26 27 28 29 30 31 32 33 34 35 36 37 38 39 40 41 42 43 44 45 46 47 48 49 50

674
ASUS43 KFSD 091502
RWRSD

WEATHER ROUNDUP FOR SOUTH DAKOTA
NATIONAL WEATHER SERVICE SIOUX FALLS SD
900 AM CST TUE FEB 09 2016

NOTE: "FAIR" INDICATES FEW OR NO CLOUDS BELOW 12,000 FEET WITH NO
SIGNIFICANT WEATHER AND/OR OBSTRUCTIONS TO VISIBILITY.


SDZ001>005-009-010-012>017-091600-
NORTHWEST AND NORTH CENTRAL SOUTH DAKOTA

CITY           SKY/WX    TMP DP  RH WIND       PRES   REMARKS
BUFFALO          N/A     33  26  75 W9        30.11F WCI  25
FAITH            N/A     24  16  71 SE14      30.21S WCI  12
MOBRIDGE       CLOUDY    24  12  60 W3        30.24F
$$

SDZ012>016-024>037-041>051-057-063-072>074-091600-
SOUTHWEST AND SOUTH CENTRAL SOUTH DAKOTA

CITY           SKY/WX    TMP DP  RH WIND       PRES   REMARKS
RAPID CTY ARPT CLOUDY    27  19  72 N3        30.19F
PIERRE         CLOUDY    23   8  52 CALM      30.29S
CUSTER         CLEAR     37  23  56 NW17G23   30.17S
ELLSWORTH AFB  CLOUDY    28  21  75 W2        30.18F
PHILIP         CLOUDY    25  20  81 E10       30.27R WCI  15
PINE RIDGE     CLOUDY    26  18  71 SW6       30.21S WCI  19
WINNER         CLOUDY    23   8  52 N6        30.29R WCI  16
$$

SDZ004>011-016>023-039-040-091600-
NORTHEAST SOUTH DAKOTA

CITY           SKY/WX    TMP DP  RH WIND       PRES   REMARKS
ABERDEEN       CLOUDY    16   8  71 NW8       30.28F WCI   5
WATERTOWN      CLOUDY     8   1  73 N12       30.21S WCI  -7
BROOKINGS      PTSUNNY    6  -1  73 NW14      30.21  WCI -11
SISSETON         N/A     12   7  80 N14       30.26R WCI  -3
$$

SDZ017-020-022-023-036>040-048>070-091600-
SOUTHEAST SOUTH DAKOTA

CITY           SKY/WX    TMP DP  RH WIND       PRES   REMARKS
SIOUX FALLS    MOSUNNY    8   0  69 N14       30.24R WCI  -8
HURON          SUNNY     15   7  70 N9        30.29S WCI   3
MITCHELL       CLOUDY    18  11  74 N13       30.31R WCI   5
YANKTON        SUNNY     14   7  73 NW17      30.28R WCI  -3
$$

ABBREVIATIONS USED IN REMARKS
   TC - TEMPERATURE IN CELSIUS
  WCI - WIND CHILL INDEX
   HX - HEAT INDEX
  VSB - VISIBILITY





USA.gov is the U.S. government's official web portal to all federal, state and local government web resources and services.